This is the latest recevied weather packets stored in our database for station/object K7FLA. If no packets are shown the sender has not sent any weather packets the latest 10 day(s).
| Time | Temp. | Humidity | Pressure | Rain* | Wind** | Luminosity | Snow |
|---|---|---|---|---|---|---|---|
| 1788024851 | 37.78° C | 27% | 1096.6 hPa | 0 mm | - | 656 W/m² | - |
| 1788024548 | 37.78° C | 28% | 1096.6 hPa | 0 mm | - | 641 W/m² | - |
| 1788024246 | 37.22° C | 29% | 1096.7 hPa | 0 mm | - | 630 W/m² | - |
| 1788023942 | 36.67° C | 29% | 1096.8 hPa | 0 mm | - | 617 W/m² | - |
| 1788023650 | 36.11° C | 30% | 1096.7 hPa | 0 mm | - | 603 W/m² | - |
| 1788023333 | 36.11° C | 28% | 1096.6 hPa | 0 mm | - | 591 W/m² | - |
| 1788023028 | 36.11° C | 29% | 1096.7 hPa | 0 mm | - | 575 W/m² | - |
| 1788022726 | 36.11° C | 29% | 1096.8 hPa | 0 mm | - | 563 W/m² | - |
| 1788022422 | 35.56° C | 31% | 1096.7 hPa | 0 mm | - | 547 W/m² | - |
| 1788022119 | 35° C | 31% | 1096.7 hPa | 0 mm | - | 530 W/m² | - |
| 1788021812 | 35° C | 29% | 1096.6 hPa | 0 mm | - | 516 W/m² | - |
| 1788021511 | 35° C | 30% | 1096.5 hPa | 0 mm | - | 499 W/m² | - |
| 1788021205 | 34.44° C | 31% | 1096.3 hPa | 0 mm | - | 481 W/m² | - |
| 1788020901 | 34.44° C | 31% | 1096.4 hPa | 0 mm | - | 463 W/m² | - |
| 1788020595 | 34.44° C | 31% | 1096.4 hPa | 0 mm | - | 444 W/m² | - |
| 1788020291 | 34.44° C | 31% | 1096.4 hPa | 0 mm | - | 426 W/m² | - |
| 1788019987 | 34.44° C | 31% | 1096.3 hPa | 0 mm | - | 410 W/m² | - |
| 1788019687 | 34.44° C | 32% | 1096.2 hPa | 0 mm | - | 392 W/m² | - |
| 1788019386 | 34.44° C | 34% | 1096.3 hPa | 0 mm | - | 376 W/m² | - |
| 1788019084 | 33.89° C | 33% | 1096.1 hPa | 0 mm | - | 359 W/m² | - |
| 1788018784 | 33.89° C | 35% | 1096.2 hPa | 0 mm | - | 343 W/m² | - |
| 1788018479 | 33.33° C | 34% | 1096.3 hPa | 0 mm | - | 326 W/m² | - |
| 1788018179 | 33.33° C | 34% | 1096.4 hPa | 0 mm | - | 311 W/m² | - |
| 1788017875 | 32.78° C | 35% | 1096.2 hPa | 0 mm | - | 294 W/m² | - |
| 1788017571 | 33.33° C | 33% | 1096.2 hPa | 0 mm | - | 278 W/m² | - |
* Rain latest hour (hover to see other rain measurements)
** Current wind speed in m/s (hover to see current wind gust speed)